Weather Roundup
Issued by NWS

Home | Current Version | Previous Version | Graphics & Text | Print | Product List | Glossary Off
Versions: 1 2 3 4 5 6 7 8 9 10 11 12 13 14 15 16 17 18 19 20 21 22 23 24 25 26 27 28 29 30 31 32 33 34 35 36 37 38 39 40 41 42 43 44 45 46 47 48 49 50

000
NZUS93 KARX 060459
HRRWXR

CURRENT HOURLY OBSERVATIONS ACROSS
MUCH OF THE UPPER MISSISSIPPI VALLEY
NATIONAL WEATHER SERVICE LA CROSSE WI
1200 AM CDT WED MAY 06 2015


...SOUTHEAST MINNESOTA...


CITY           SKY/WX    TMP DP  RH WIND       PRES   REMARKS
ROCHESTER      FOG       53  52  96 SE12      30.16S VSB 1/2
ROCHESTER/MAYO CLOUDY    53  53 100 E9        30.15F
WINONA         CLOUDY    54  52  94 SE8       30.18S
AUSTIN         FOG       54  52  94 SE9       30.13F VSB 1/2
ALBERT LEA     FOG       54  54 100 SE13      30.12S VSB 1/4
DODGE CENTER   FOG       54  54 100 SE15      30.14F VSB 1/2
PRESTON        FOG       52  51  97 SE9       30.16F VSB 1/2
OWATONNA       CLOUDY    54  52  94 SE10      30.12F FOG
FARIBAULT      CLOUDY    54  54 100 SE14G20   30.13S
$$

...ELSEWHERE IN MINNESOTA...


CITY           SKY/WX    TMP DP  RH WIND       PRES   REMARKS
MINNEAPOLIS    CLOUDY    56  53  90 SE13      30.13S
INTNL FALLS    CLEAR     52  32  46 SE5       30.10R
DULUTH         PTCLDY    50  27  40 E8        30.16F
RED WING       CLOUDY    55  54  94 SE13      30.14S
REDWOOD FALLS  CLOUDY    56  53  90 SE13      30.06F
MANKATO        CLOUDY    55  54  94 SE12      30.10S
WORTHINGTON    CLOUDY    55  54  94 SE14      30.05R VSB 1/2
FAIRMONT       CLOUDY    55  52  88 SE14G20   30.07F VSB 3/4
$$

...SOUTHWEST WISCONSIN...


CITY           SKY/WX    TMP DP  RH WIND       PRES   REMARKS
LA CROSSE      CLOUDY    56  52  86 E6        30.19R
PRAIRIE DU CHI CLOUDY    56  53  89 SE8       30.17S
BOSCOBEL       CLOUDY    56  53  90 E3        30.20S FOG
LONE ROCK      NOT AVBL
PLATTEVILLE    CLOUDY    52  51  96 E9        30.19R
FORT MC COY    CLOUDY    52  50  93 E3        30.20S
VIROQUA        CLOUDY    53  53 100 SE10      30.19R
WIS DELLS      NOT AVBL
$$

...ELSEWHERE IN WISCONSIN...


CITY           SKY/WX    TMP DP  RH WIND       PRES   REMARKS
MILWAUKEE      LGT RAIN  45  39  79 NE5       30.26R
MADISON        CLOUDY    52  49  89 MISG      30.22S
GREEN BAY      CLOUDY    53  35  50 S3        30.26R
EAU CLAIRE     LGT RAIN  54  48  82 MISG      30.18S
BLACK RVR FLS  DRIZZLE   54  51  89 E5        30.20S
MEDFORD        CLOUDY    55  26  32 SE6       30.22S
WAUSAU         CLOUDY    56  24  29 E7        30.22S
WIS RAPIDS     LGT RAIN  53  45  74 SE7       30.23F
MARSHFIELD     CLOUDY    54  44  69 E9        30.22S
RICE LAKE      CLOUDY    59  37  44 SE12      30.18F
$$

...NORTHEAST IOWA...


CITY           SKY/WX    TMP DP  RH WIND       PRES   REMARKS
DECORAH        FOG       54  54 100 SE7G13    30.16S VSB 1
MASON CITY     FOG       55  55 100 E13       30.13F VSB 1/4
CHARLES CITY   FOG       55  55 100 E14       30.14F VSB 1/4
OELWEIN        CLOUDY    55  55 100 SE15      30.15S FOG
$$

...ELSEWHERE IN IOWA...


CITY           SKY/WX    TMP DP  RH WIND       PRES   REMARKS
DES MOINES     CLOUDY    68  63  84 E10       30.06S HAZE
IOWA CITY      NOT AVBL
FORT DODGE     CLOUDY    63  59  88 E14       30.07S
$$

...NORTHERN ILLINOIS...


CITY           SKY/WX    TMP DP  RH WIND       PRES   REMARKS
CHICAGO-OHARE  FOG       47  46  97 NE8       30.20F VSB 1
CHICAGO-MIDWAY CLOUDY    51  48  89 N8        30.20F FOG
MOLINE         MOCLDY    59  55  87 E10       30.16R FOG
ROCKFORD       CLOUDY    52  49  89 E6        30.22S FOG
PEORIA         CLEAR     65  60  84 E9        30.14F HAZE
$$

NOTE: "FAIR" INDICATES FEW OR NO CLOUDS BELOW 12,000 FEET WITH NO
SIGNIFICANT WEATHER AND/OR OBSTRUCTIONS TO VISIBILITY. WIND
SPEEDS ARE IN MILES-PER-HOUR.



USA.gov is the U.S. government's official web portal to all federal, state and local government web resources and services.